CW5752 Weather Reports


time (UTC)temp
F
wind
direction
speed
knots
gust
knots
rain 1hr
in
rain 24hr
in
rain mn
in
humidity
%
barometer
mb
20260904125022 76 0.0 0.0 0.00 0.00 0.00 90 1015.4
20260904124022 76 0.0 0.0 0.00 0.00 0.00 91 1015.4
20260904123016 75 0.0 0.0 0.00 0.00 0.00 92 1015.2
20260904122021 74 0.0 0.0 0.00 0.00 0.00 92 1015.1
20260904121022 74 0.0 0.0 0.00 0.00 0.00 92 1015.1
20260904120022 73 0.0 0.0 0.00 0.00 0.00 92 1015.1
20260904115021 74 0.0 0.0 0.00 0.00 0.00 92 1014.9
20260904114022 74 0.0 0.0 0.00 0.00 0.00 92 1014.9
20260904113017 74 0.0 0.0 0.00 0.00 0.00 92 1014.7
20260904112022 73 0.0 0.0 0.00 0.00 0.00 92 1014.6
20260904111022 73 0.0 0.0 0.00 0.00 0.00 92 1014.6
20260904110022 73 0.0 0.0 0.00 0.00 0.00 91 1014.6
20260904105021 73 196 0.0 1.7 0.00 0.00 0.00 90 1014.5
20260904104022 75 0.0 0.0 0.00 0.00 0.00 92 1014.3
20260904103022 74 0.0 0.0 0.00 0.00 0.00 92 1014.3
20260904102017 74 0.0 0.0 0.00 0.00 0.00 92 1014.4
20260904101021 74 0.0 0.0 0.00 0.00 0.00 92 1014.4
20260904100022 74 0.0 0.0 0.00 0.00 0.00 92 1014.4
20260904095025 74 0.0 0.0 0.00 0.00 0.00 90 1014.4
20260904094022 75 0.0 0.0 0.00 0.00 0.00 91 1014.3
20260904093022 75 0.0 0.0 0.00 0.00 0.00 90 1014.3
20260904092016 75 0.0 0.0 0.00 0.00 0.00 90 1014.2
20260904091017 75 0.0 0.0 0.00 0.00 0.00 90 1014.1
20260904090024 75 0.0 0.0 0.00 0.00 0.00 90 1014.1
20260904085022 75 0.0 0.0 0.00 0.00 0.00 90 1014.2
20260904084022 75 0.0 0.0 0.00 0.00 0.00 90 1014.2
20260904083020 75 0.0 0.0 0.00 0.00 0.00 90 1014.1
20260904082022 75 0.0 0.0 0.00 0.00 0.00 89 1014.2
20260904081016 75 0.0 0.0 0.00 0.00 0.00 90 1014.1
20260904080021 75 0.0 0.0 0.00 0.00 0.00 90 1014.0
20260904075022 76 0.0 0.0 0.00 0.00 0.00 89 1013.9
20260904074022 76 0.0 0.0 0.00 0.00 0.00 89 1013.9
20260904073022 75 0.0 0.0 0.00 0.00 0.00 90 1013.9
20260904072021 75 0.0 0.0 0.00 0.00 0.00 88 1014.0
20260904071016 77 0.0 0.0 0.00 0.00 0.00 86 1014.0
20260904070016 78 0.0 0.0 0.00 0.00 0.00 85 1014.0
20260904065026 77 0.0 0.0 0.00 0.00 0.00 87 1014.0
20260904064022 77 0.0 0.0 0.00 0.00 0.00 87 1014.0
20260904063042 77 0.0 0.0 0.00 0.00 0.00 86 1014.1
20260904062022 77 0.0 0.0 0.00 0.00 0.00 86 1014.1
20260904061021 77 0.0 0.0 0.00 0.00 0.00 86 1014.2
20260904060018 77 0.0 0.0 0.00 0.00 0.00 86 1014.2
20260904055022 77 0.0 0.0 0.00 0.00 0.00 87 1014.2
20260904054021 77 0.0 0.0 0.00 0.00 0.00 87 1014.2
20260904053022 77 0.0 0.0 0.00 0.00 0.00 86 1014.1
20260904052022 78 0.0 0.0 0.00 0.00 0.00 85 1014.0
20260904051022 78 0.0 0.0 0.00 0.00 0.00 84 1014.1
20260904050021 78 0.0 0.0 0.00 0.00 0.00 84 1014.0
20260904045022 78 0.0 0.0 0.00 0.00 0.00 84 1014.0
20260904044022 78 0.0 0.0 0.00 0.00 0.00 84 1014.1
20260904043037 79 0.0 0.0 0.00 0.00 0.00 83 1014.1
20260904042022 79 0.0 0.0 0.00 0.00 0.00 82 1014.0
20260904041022 79 0.0 0.0 0.00 0.00 0.00 83 1014.0
20260904040022 80 0.0 0.0 0.00 0.00 0.00 79 1014.0
20260904035042 80 0.0 0.0 0.00 0.00 0.00 79 1014.1
20260904034022 80 0.0 0.0 0.00 0.00 0.00 80 1014.0
20260904033017 81 0.0 0.0 0.00 0.00 0.00 80 1014.1
20260904032022 81 0.0 0.0 0.00 0.00 0.00 78 1014.1
20260904031022 81 0.0 0.0 0.00 0.00 0.00 79 1014.2
20260904030022 81 0.0 0.0 0.00 0.00 0.00 80 1014.2
20260904025042 81 0.0 0.0 0.00 0.00 0.00 79 1014.2
20260904024022 82 0.0 0.0 0.00 0.00 0.00 78 1014.0
20260904023102 82 0.0 0.0 0.00 0.00 0.00 77 1014.0
20260904022017 82 0.0 0.0 0.00 0.00 0.00 76 1013.8
20260904021022 82 0.0 0.0 0.00 0.00 0.00 76 1013.8
20260904020022 83 0.0 0.0 0.00 0.00 0.00 75 1013.7
20260904015042 83 0.0 0.0 0.00 0.00 0.00 76 1013.7
20260904014022 83 0.0 0.0 0.00 0.00 0.00 76 1013.5
20260904013022 83 0.0 0.0 0.00 0.00 0.00 74 1013.4
20260904012017 84 0.0 0.0 0.00 0.00 0.00 73 1013.3
20260904011025 85 0.0 0.0 0.00 0.00 0.00 71 1013.2
20260904010042 85 0.0 0.0 0.00 0.00 0.00 71 1013.1
20260904005022 85 0.0 0.0 0.00 0.00 0.00 70 1013.0
20260904004042 85 0.0 0.0 0.00 0.00 0.00 69 1013.0
20260904003040 86 0.0 0.0 0.00 0.00 0.00 68 1012.9
20260904002023 89 0.0 0.0 0.00 0.00 0.00 63 1012.9
20260904001017 89 0.0 0.0 0.00 0.00 0.00 59 1012.8
20260904000022 91 0.0 0.0 0.00 0.00 0.00 57 1012.7
20260903235024 92 0.0 2.6 0.00 0.00 0.00 55 1012.7
20260903234022 93 182 0.0 1.7 0.00 0.00 0.00 54 1012.7
20260903233103 94 182 0.0 2.6 0.00 0.00 0.00 52 1012.7
20260903232022 94 181 0.0 3.5 0.00 0.00 0.00 50 1012.7
20260903231017 95 182 0.0 3.5 0.00 0.00 0.00 49 1012.5
20260903230017 96 191 0.0 3.5 0.00 0.00 0.00 47 1012.4
20260903225022 96 188 0.0 1.7 0.00 0.00 0.00 48 1012.5
20260903224022 97 193 0.0 1.7 0.00 0.00 0.00 48 1012.5
20260903223022 97 0.0 1.7 0.00 0.00 0.00 46 1012.5
20260903222022 97 189 0.0 0.9 0.00 0.00 0.00 43 1012.5
20260903221022 97 0.0 1.7 0.00 0.00 0.00 44 1012.6
20260903220017 98 197 0.0 4.3 0.00 0.00 0.00 45 1012.8
20260903215022 97 209 0.0 0.9 0.00 0.00 0.00 44 1012.8
20260903214022 97 0.0 0.0 0.00 0.00 0.00 45 1012.9
20260903213022 98 221 0.0 4.3 0.00 0.00 0.00 44 1012.9
20260903212022 98 169 0.0 2.6 0.00 0.00 0.00 45 1013.0
20260903211102 97 169 0.0 1.7 0.00 0.00 0.00 45 1013.0
20260903210022 95 169 0.0 1.7 0.00 0.00 0.00 49 1013.2
20260903205017 96 169 0.0 1.7 0.00 0.00 0.00 48 1013.3
20260903204022 97 169 0.0 1.7 0.00 0.00 0.00 47 1013.4
20260903203022 95 163 0.0 2.6 0.00 0.00 0.00 49 1013.3
20260903202022 96 159 0.9 5.2 0.00 0.00 0.00 45 1013.4
20260903201042 98 187 1.7 6.1 0.00 0.00 0.00 44 1013.6
20260903200022 98 221 1.7 7.0 0.00 0.00 0.00 45 1013.6
20260903195037 98 217 0.9 4.3 0.00 0.00 0.00 45 1013.6
20260903194037 98 204 0.9 6.1 0.00 0.00 0.00 46 1013.7
20260903193022 98 180 0.9 6.1 0.00 0.00 0.00 45 1014.0
20260903192022 99 217 0.9 4.3 0.00 0.00 0.00 44 1014.0
20260903191022 98 263 0.9 5.2 0.00 0.00 0.00 46 1014.0
20260903190022 96 201 0.9 2.6 0.00 0.00 0.00 45 1014.1
20260903185022 96 188 0.0 3.5 0.00 0.00 0.00 48 1014.2
20260903184017 96 187 0.0 3.5 0.00 0.00 0.00 48 1014.2
20260903183022 96 263 1.7 5.2 0.00 0.00 0.00 48 1014.3
20260903182022 96 244 1.7 5.2 0.00 0.00 0.00 46 1014.4
20260903181022 97 177 1.7 7.0 0.00 0.00 0.00 46 1014.6
20260903180023 97 233 2.6 6.1 0.00 0.00 0.00 46 1014.8
20260903175022 97 188 0.0 4.3 0.00 0.00 0.00 46 1014.8
20260903174023 97 227 1.7 6.1 0.00 0.00 0.00 46 1015.0
20260903173017 95 251 1.7 6.1 0.00 0.00 0.00 49 1015.1
20260903172022 97 255 1.7 5.2 0.00 0.00 0.00 47 1015.2
20260903171047 96 270 3.5 7.8 0.00 0.00 0.00 49 1015.3
20260903165022 95 237 0.9 4.3 0.00 0.00 0.00 50 1015.5
20260903164022 95 275 1.7 5.2 0.00 0.00 0.00 52 1015.5
20260903163017 94 270 1.7 7.0 0.00 0.00 0.00 53 1015.7
20260903162017 94 257 0.9 4.3 0.00 0.00 0.00 53 1015.7
20260903161042 93 250 1.7 4.3 0.00 0.00 0.00 54 1015.8
20260903160022 93 248 1.7 4.3 0.00 0.00 0.00 56 1015.9
20260903155022 92 237 1.7 4.3 0.00 0.00 0.00 57 1015.8
20260903154020 92 202 0.0 2.6 0.00 0.00 0.00 56 1015.9
20260903153022 90 198 0.0 3.5 0.00 0.00 0.00 58 1015.9
20260903152017 90 219 0.9 3.5 0.00 0.00 0.00 61 1016.0
20260903151022 90 219 0.9 2.6 0.00 0.00 0.00 60 1016.0
20260903150022 89 218 0.9 4.3 0.00 0.00 0.00 62 1016.0
20260903145022 88 221 0.0 2.6 0.00 0.00 0.00 63 1016.0
20260903144022 88 198 0.9 3.5 0.00 0.00 0.00 64 1016.0
20260903143022 87 163 0.0 2.6 0.00 0.00 0.00 66 1015.9
20260903142017 86 154 0.9 4.3 0.00 0.00 0.00 69 1016.0
20260903141017 85 148 0.0 3.5 0.00 0.00 0.00 70 1016.0
20260903140022 84 135 0.0 3.5 0.00 0.00 0.00 72 1016.1
20260903135022 83 125 0.0 2.6 0.00 0.00 0.00 74 1016.1
20260903134025 82 124 0.0 2.6 0.00 0.00 0.00 76 1016.2
20260903133027 81 123 0.0 1.7 0.00 0.00 0.00 79 1016.2
20260903132022 80 123 0.0 1.7 0.00 0.00 0.00 82 1016.1
20260903131057 78 123 0.0 1.7 0.00 0.00 0.00 86 1016.1
20260903130027 76 0.0 0.0 0.00 0.00 0.00 90 1016.1